Location: Rounton
(54.4000°N, 1.3500°W)
Time: 01:00:32
(UTC+00:00)

Explorer 7 - Pass Details

Date: 04 December 2021
Orbit: 483 x 674 km, 50.3° (Epoch: 18 January)

Event Time Altitude Azimuth Distance (km) Brightness Sun altitude
Exits shadow 05:14:24 - 189° (S) 2,371 10.0 -23.9°
Reaches altitude 10° 05:16:20 10° 171° (S) 1,878 9.7 -23.6°
Maximum altitude 05:18:23 13° 143° (SE) 1,649 9.8 -23.3°
Drops below altitude 10° 05:20:23 10° 114° (ESE) 1,825 10.5 -23.0°
Sets 05:23:34 0° 87° (E) 2,676 11.7 -22.5°
